GEFSCGP_con_probscp_168.txt.gz
Probability
0 0 0 0 0 0 0 0 0 0 0 0 0 1 2 2 2 4 7 11 14 14 14 14 17 20 22 23 20 18 18 18 16 13 10 7 4 1 1 2 1 0 0 0
0 0 0 0 0 0 0 0 0 0 0 0 0 0 1 1 1 3 7 11 13 14 16 19 21 22 24 25 23 20 20 19 16 12 9 6 3 1 1 2 2 1 0 0
0 0 0 0 0 0 0 0 0 0 0 0 0 0 0 0 0 2 6 9 11 14 18 23 24 23 24 25 23 21 21 21 17 12 8 5 3 1 0 1 2 2 1 1
0 0 0 0 0 0 0 0 0 0 0 0 0 0 0 0 1 2 4 6 9 13 18 22 24 22 20 20 20 19 20 19 16 13 9 7 5 2 1 1 2 2 1 0
0 0 0 0 0 0 0 0 0 0 0 0 0 0 0 0 1 2 3 4 8 13 15 19 23 20 16 15 16 17 17 16 14 14 12 10 8 5 3 2 3 3 1 1
0 0 0 0 0 0 0 0 0 0 0 0 0 0 0 0 1 1 2 3 9 14 15 19 23 21 16 14 14 16 18 17 16 15 13 12 10 7 6 5 5 4 3 3
0 0 0 0 0 0 0 0 0 0 0 0 0 0 0 0 1 1 0 2 9 15 18 20 22 21 19 18 16 18 21 21 17 16 15 14 12 9 8 8 8 7 5 4
0 0 0 0 0 0 0 0 0 0 0 0 0 0 0 0 1 0 0 2 8 15 20 21 20 19 20 19 18 19 22 22 18 15 15 16 15 11 8 8 7 7 6 5
0 0 0 0 0 0 0 0 0 0 0 0 0 0 0 0 0 0 1 3 8 15 22 23 21 18 17 17 16 18 21 22 19 16 16 17 17 13 9 7 6 6 5 5
0 0 0 0 0 0 0 0 0 0 0 0 0 0 0 0 0 0 1 4 10 17 24 25 22 17 16 17 17 17 19 21 20 19 18 18 17 14 11 9 7 6 5 4
0 0 0 0 0 0 0 0 0 0 0 0 0 0 0 0 0 1 3 8 14 20 24 25 21 17 18 20 20 18 17 20 22 22 21 19 16 13 12 12 10 8 6 5
0 0 0 0 0 0 0 0 0 0 0 0 0 0 0 0 1 3 6 11 16 22 28 28 24 21 21 23 23 20 19 20 21 21 22 21 17 14 14 14 13 10 9 8
0 0 0 0 0 0 0 0 0 0 0 0 0 0 0 1 3 6 10 15 20 28 35 36 30 27 27 27 25 24 22 20 19 20 23 23 20 17 16 16 15 13 12 11
0 0 0 0 0 0 0 0 0 0 0 0 0 0 2 3 5 8 15 20 26 36 44 43 39 36 35 33 31 28 25 23 21 24 28 30 27 22 19 18 15 13 12 12
0 0 0 0 0 0 0 0 0 0 0 0 0 2 4 5 5 10 17 22 30 43 51 51 50 48 45 41 38 35 33 31 31 32 36 38 35 27 22 19 16 14 14 12
0 0 0 0 0 0 0 0 0 0 0 0 1 4 7 8 9 14 21 26 34 45 53 56 61 62 57 51 46 44 46 45 44 43 44 44 40 33 26 21 18 16 15 13
0 0 0 0 0 0 0 0 0 0 1 2 5 10 14 17 18 23 30 34 40 47 52 57 64 69 67 61 55 54 56 57 55 53 53 51 45 37 30 25 22 18 15 12
0 0 0 0 0 0 1 1 1 2 5 10 15 20 25 28 27 29 35 41 47 51 55 60 64 68 70 68 63 59 60 62 62 60 59 55 48 41 34 30 27 22 16 13
1 1 0 0 0 1 2 3 4 6 12 21 27 31 34 32 28 32 40 46 51 56 63 68 69 70 74 73 69 65 64 66 67 65 62 57 51 45 39 34 29 24 21 18
1 2 1 0 0 2 7 9 9 10 20 32 38 39 39 36 34 42 49 52 54 60 69 73 73 76 80 80 76 72 69 69 70 66 61 56 51 46 41 34 28 27 26 24
1 1 0 0 1 6 16 21 20 25 38 48 51 51 49 45 47 52 57 57 57 62 69 72 74 79 83 83 80 75 70 67 66 63 59 53 47 43 38 32 29 28 27 25
3 3 4 5 9 20 34 38 40 49 58 62 63 61 58 53 52 57 60 60 60 63 67 70 72 75 79 80 78 73 68 62 60 61 57 49 43 39 34 31 29 27 25 23
8 11 15 18 25 36 48 53 55 61 65 64 62 60 57 55 55 59 63 64 61 62 66 68 67 68 70 72 71 68 66 61 59 58 55 48 43 38 34 30 27 24 22 21
14 19 26 30 34 40 47 51 53 55 58 58 56 53 53 55 57 61 65 64 60 59 62 64 61 59 60 60 59 60 61 61 59 56 51 45 41 37 34 29 25 22 20 18
17 22 29 33 33 35 38 40 41 43 45 47 48 47 47 49 52 55 59 58 54 53 56 57 55 52 51 50 49 50 53 56 55 51 45 39 36 34 31 27 22 18 14 12
16 20 26 29 31 33 34 33 32 33 36 39 40 40 41 43 45 48 51 51 49 48 50 52 51 48 46 45 44 45 47 50 50 45 40 35 33 32 29 25 19 13 8 6

GEFSCGP_con_probscp_174.txt.gz
Probability
0 0 0 0 0 0 0 0 0 0 0 0 0 0 0 1 3 9 19 32 43 48 50 53 53 52 58 64 63 53 43 37 31 25 21 20 20 17 16 17 15 9 5 4
0 0 0 0 0 0 0 0 0 0 0 0 0 0 1 1 1 6 17 30 42 50 57 61 58 55 60 67 65 56 47 40 35 30 25 21 19 18 16 18 17 12 7 5
0 0 0 0 0 0 0 0 0 0 0 0 0 1 2 1 1 3 11 24 38 51 63 69 65 60 61 65 64 58 51 44 38 34 28 23 21 21 20 21 22 18 12 9
0 0 0 0 0 0 0 0 0 0 0 0 0 0 1 0 1 4 7 16 29 46 61 68 68 63 58 56 58 59 55 47 38 32 27 23 23 24 25 25 24 21 17 15
0 0 0 0 0 0 0 0 0 0 0 0 0 0 0 0 1 4 6 10 22 38 53 64 68 63 53 48 52 60 60 51 39 29 22 21 23 25 25 25 23 22 21 19
0 0 0 0 0 0 0 0 0 0 0 0 0 0 0 0 0 2 4 8 18 32 44 57 64 61 52 47 51 61 64 56 43 30 22 21 22 24 25 24 24 25 24 21
0 0 0 0 0 0 0 0 0 0 0 0 0 0 0 0 0 2 4 7 15 25 37 47 55 56 53 49 53 63 67 61 49 37 28 25 24 25 27 28 28 29 26 21
0 0 0 0 0 0 0 0 0 0 0 0 0 0 0 0 1 2 5 7 11 17 28 39 47 51 52 51 53 61 68 65 55 44 36 31 28 29 31 32 31 29 25 18
0 0 0 0 0 0 0 0 0 0 0 0 0 0 1 2 2 5 8 8 9 13 22 33 42 48 50 50 52 57 63 64 56 49 42 36 32 32 34 33 30 27 21 16
0 0 0 0 0 0 0 0 0 0 1 0 0 0 3 5 7 9 11 11 12 16 22 30 40 45 46 48 51 54 60 62 58 51 45 39 36 35 35 33 29 23 18 15
0 0 0 0 0 0 0 0 0 0 1 0 0 1 5 8 10 12 14 16 18 20 25 32 40 43 43 46 51 55 60 63 60 54 48 44 43 41 38 34 28 22 18 15
0 0 0 0 0 0 0 0 0 0 1 0 0 3 7 10 12 12 13 18 22 25 29 37 44 45 44 46 52 57 61 64 62 59 56 51 48 44 39 34 29 25 20 18
0 0 0 0 0 0 0 0 0 0 0 0 1 4 10 14 15 15 16 22 27 31 38 47 54 54 52 53 57 59 61 64 65 63 62 57 49 43 38 34 32 30 24 20
0 0 0 0 0 0 0 0 0 0 0 0 1 5 12 17 18 20 24 30 36 41 50 62 68 68 66 66 65 62 61 65 67 65 63 59 52 45 39 36 35 33 26 20
0 0 0 0 0 0 0 0 0 0 0 0 1 6 13 18 20 24 29 36 43 51 61 72 80 81 80 79 74 67 66 70 72 68 64 62 56 50 45 42 40 36 27 20
1 1 0 0 0 0 0 0 0 0 0 0 2 7 15 21 27 31 34 39 47 55 65 77 85 88 89 87 82 75 73 76 77 73 67 66 63 58 55 51 46 40 32 26
2 3 2 0 0 0 0 0 0 1 2 3 6 13 20 28 37 45 48 49 53 60 69 79 86 90 92 92 89 82 78 77 77 74 72 71 69 67 64 58 51 47 40 35
5 6 4 1 0 0 0 1 1 2 5 8 14 22 29 36 46 56 62 63 64 69 76 81 84 88 92 94 92 85 80 79 77 75 75 75 74 73 70 65 60 55 46 40
5 7 4 1 0 0 1 2 3 5 11 18 26 33 38 41 48 59 68 70 71 75 79 81 83 87 92 95 94 89 85 83 81 78 78 78 76 75 73 69 64 56 47 42
3 4 3 1 0 1 2 3 5 11 21 32 41 48 51 51 55 63 71 74 74 77 80 81 82 86 92 96 96 92 88 86 84 83 82 80 77 75 72 68 61 53 46 43
1 1 2 1 1 3 8 12 18 29 42 51 56 63 67 68 68 71 75 76 76 78 79 80 81 84 89 94 94 91 87 86 86 86 83 79 74 69 67 66 61 52 47 46
2 4 6 8 10 16 24 31 43 56 64 66 67 72 75 75 75 74 73 73 74 76 78 78 80 82 82 85 87 86 86 86 84 82 78 74 68 63 61 62 60 55 50 48
7 11 16 22 28 35 42 49 59 67 70 69 69 70 70 70 70 70 70 70 69 71 72 73 76 77 74 73 75 78 81 81 79 75 72 68 66 62 59 58 56 52 47 44
13 18 26 35 41 46 48 51 55 59 62 63 61 60 60 62 63 65 67 68 67 66 64 65 68 69 67 64 66 70 74 75 73 71 69 66 64 61 56 52 47 42 38 35
19 21 31 41 46 47 45 43 45 48 50 52 52 52 53 55 57 60 63 65 64 62 60 60 62 62 60 61 63 66 68 69 66 65 65 64 61 57 50 43 35 29 25 23
21 23 31 41 47 47 43 40 40 41 41 44 47 48 49 51 54 57 59 62 63 60 58 58 59 59 58 60 63 65 64 63 62 59 59 60 58 54 47 37 28 21 16 14

GEFSCGP_con_probscp_180.txt.gz
Probability
0 0 0 0 0 0 0 0 0 0 0 0 0 0 0 1 7 19 27 31 33 31 32 40 50 52 47 41 35 31 25 20 14 10 6 5 6 6 5 4 2 0 1 2
0 0 0 0 0 0 0 0 0 0 0 0 0 0 0 1 5 15 25 32 35 35 39 47 55 56 52 46 41 34 26 20 14 9 7 8 8 6 4 3 2 1 1 2
0 0 0 0 0 0 0 0 0 0 0 0 0 0 0 1 4 10 19 29 37 41 47 54 58 60 57 52 46 39 30 21 15 12 11 12 11 6 3 2 2 1 1 1
0 0 0 0 0 0 0 0 0 0 0 0 0 0 1 2 4 8 16 28 37 44 51 56 58 60 59 54 48 42 33 24 18 15 14 15 14 9 4 2 2 2 1 2
0 0 0 0 0 0 0 0 0 0 0 0 0 0 1 2 3 7 17 28 38 46 54 57 57 58 58 55 48 42 35 28 23 17 14 15 15 12 7 4 3 3 2 1
0 0 0 0 0 0 0 0 0 0 0 0 0 0 0 1 4 8 17 28 38 48 53 54 54 53 54 53 47 41 36 32 27 21 17 15 14 13 11 7 5 3 2 1
0 0 0 0 0 0 0 0 0 0 0 0 0 0 0 1 4 10 17 26 36 45 49 48 47 49 51 50 46 41 38 33 27 23 19 15 12 11 10 7 5 3 1 0
0 0 0 0 0 0 0 0 0 0 0 0 0 0 0 2 6 12 18 24 32 37 40 41 43 45 48 49 46 43 40 34 27 23 19 15 11 8 6 6 4 2 1 0
0 0 0 0 0 0 0 0 0 0 0 0 0 0 1 4 8 14 21 26 28 30 33 36 38 40 42 44 44 43 41 36 30 25 20 15 10 7 6 6 5 3 1 1
0 0 0 0 0 0 0 0 0 0 0 0 0 0 2 5 8 14 21 26 26 28 32 33 33 34 35 35 37 40 40 37 34 28 22 16 11 9 9 9 8 5 4 3
0 0 0 0 0 0 0 0 0 0 0 0 0 0 2 6 8 13 19 24 26 30 33 33 32 30 30 30 33 38 39 37 35 31 23 16 13 12 13 12 10 7 6 6
0 0 0 0 0 0 0 0 0 0 0 0 1 2 5 9 12 15 21 25 28 31 33 35 35 34 34 34 34 36 36 36 36 33 26 18 15 15 16 15 11 9 8 8
0 0 0 0 0 0 0 0 0 0 0 0 2 4 8 13 16 19 24 30 33 32 33 37 42 43 42 41 40 37 36 37 37 35 29 23 20 20 19 16 13 11 9 8
0 0 0 0 0 0 0 0 0 0 0 0 2 6 11 15 19 22 26 32 36 35 36 40 44 46 45 46 47 45 41 39 39 36 30 27 24 22 20 19 16 12 9 7
0 0 0 0 0 0 0 0 0 0 0 1 4 10 14 18 24 28 31 36 39 40 42 44 44 44 44 47 54 56 51 46 44 39 33 30 28 25 24 23 19 14 10 7
0 0 0 0 0 0 0 0 1 1 1 3 9 15 19 25 31 36 39 42 44 46 51 52 50 48 47 50 58 63 59 54 52 47 41 38 36 33 31 28 24 18 11 8
0 0 0 0 0 0 0 1 4 6 7 9 14 21 29 34 38 41 43 48 51 53 55 56 56 56 54 55 59 62 61 59 59 56 51 48 46 42 38 32 26 21 15 10
0 0 0 0 0 0 1 3 7 12 15 18 21 29 40 45 45 47 49 54 58 57 55 55 57 60 60 58 59 61 61 63 64 61 58 56 54 49 44 37 29 23 19 15
0 0 0 0 0 0 1 3 7 13 20 23 27 36 46 52 53 54 57 60 60 58 55 53 55 59 59 56 57 60 62 63 63 62 60 60 58 55 50 42 31 24 20 17
0 0 0 0 0 0 1 4 7 11 17 24 31 38 45 49 51 54 57 59 58 57 54 53 54 55 53 51 51 56 59 58 57 57 58 58 57 55 49 41 33 25 20 17
0 0 0 0 0 0 2 6 8 10 15 24 32 39 42 42 43 47 51 53 54 55 52 50 52 52 49 48 49 52 53 52 51 52 54 54 53 50 44 38 33 28 24 21
1 0 0 1 1 2 5 9 10 11 17 26 34 39 41 40 41 47 50 51 52 52 50 49 50 50 49 49 50 49 48 48 49 50 50 51 50 46 40 36 34 32 30 29
3 2 3 5 8 10 13 15 15 14 18 26 33 36 38 40 43 48 51 51 50 49 48 48 49 50 49 49 48 46 44 44 45 45 45 45 45 42 39 37 34 32 32 33
4 5 8 11 14 18 21 22 20 17 17 20 25 29 31 35 40 45 47 47 45 43 42 41 43 46 46 45 43 40 38 38 38 38 37 36 37 38 38 37 33 31 31 31
3 5 8 10 12 15 19 19 18 18 16 16 18 22 25 28 33 38 40 40 39 36 33 31 32 35 37 38 36 34 32 31 32 32 29 28 30 33 35 33 29 26 24 23
1 2 4 5 6 9 12 14 15 17 17 16 16 18 22 26 31 35 36 35 35 33 28 24 24 26 29 31 32 30 28 29 29 29 26 25 27 29 30 28 24 19 15 14

GEFSCGP_con_probscp_186.txt.gz
Probability
0 0 0 0 0 0 0 0 0 0 0 0 0 0 0 0 0 0 1 1 1 1 3 6 11 19 19 14 12 8 4 1 1 4 5 5 4 2 1 0 0 0 0 0
0 0 0 0 0 0 0 0 0 0 0 0 0 0 0 0 0 0 1 1 1 2 5 8 13 19 20 16 13 10 6 3 2 3 3 3 2 1 0 0 0 0 0 0
0 0 0 0 0 0 0 0 0 0 0 0 0 0 0 0 0 0 1 1 2 4 6 9 13 18 20 18 15 12 9 5 4 3 3 3 2 1 0 0 0 0 0 0
0 0 0 0 0 0 0 0 0 0 0 0 0 0 0 0 0 0 0 1 2 5 8 9 11 16 20 19 16 13 10 8 6 5 6 6 4 2 1 0 0 0 0 0
0 0 0 0 0 0 0 0 0 0 0 0 0 0 0 0 0 0 0 0 2 5 8 8 9 14 18 17 15 14 12 9 7 6 7 7 6 4 1 0 0 0 0 0
0 0 0 0 0 0 0 0 0 0 0 0 0 0 0 0 0 0 0 1 2 4 7 8 9 14 17 16 14 15 12 9 7 6 6 7 6 5 3 1 0 0 0 0
0 0 0 0 0 0 0 0 0 0 0 0 0 0 0 0 0 0 1 2 4 6 8 11 13 17 20 18 17 16 13 9 7 7 7 6 6 4 3 1 0 0 0 0
0 0 0 0 0 0 0 0 0 0 0 0 0 0 0 1 1 2 2 4 7 9 10 13 16 19 21 21 21 20 15 11 9 9 10 8 6 3 1 0 0 0 0 0
0 0 0 0 0 0 0 0 0 0 0 0 0 0 1 2 4 5 5 6 9 10 10 12 15 18 20 21 21 20 17 13 10 10 12 11 8 5 3 2 1 1 1 1
0 0 0 0 0 0 0 0 0 0 0 0 0 0 1 3 5 6 7 8 10 11 11 13 15 16 18 19 18 17 15 13 11 11 12 14 12 9 7 5 3 2 2 2
0 0 0 0 0 0 0 0 0 0 0 0 0 0 0 2 3 6 7 9 11 13 15 16 17 17 17 17 15 14 13 13 12 11 13 16 15 12 9 6 5 4 4 4
0 0 0 0 0 0 0 0 0 0 0 0 0 0 2 3 4 5 7 10 13 15 17 19 19 18 18 17 15 13 11 11 13 14 17 19 18 14 10 7 7 7 6 5
0 0 0 0 0 0 0 0 0 0 0 0 0 2 5 8 9 9 10 12 15 17 19 20 21 22 22 23 20 15 13 12 15 19 22 23 21 16 12 10 9 8 6 5
0 0 0 0 0 0 0 0 0 0 0 0 1 4 9 13 16 16 15 16 18 20 20 21 22 25 27 27 26 22 18 17 20 24 25 25 23 21 17 15 12 10 6 4
0 0 0 0 0 0 0 1 1 1 1 1 3 7 11 16 21 22 21 22 23 25 24 23 24 27 28 29 29 27 23 23 25 28 29 28 27 26 23 20 18 14 9 5
0 0 0 0 0 0 0 1 2 2 2 2 4 8 13 19 25 27 27 26 27 28 27 25 25 27 29 30 30 29 28 28 30 31 34 35 33 31 28 25 22 19 13 9
0 0 0 0 0 0 0 1 1 3 4 4 6 9 15 22 27 29 28 27 27 26 24 24 24 26 28 30 31 31 32 34 34 35 37 39 39 36 33 29 25 22 19 17
0 0 0 0 0 0 0 0 0 1 2 5 9 14 18 23 26 26 25 25 24 21 20 21 23 25 26 26 29 31 33 35 37 38 39 39 41 41 38 33 29 26 22 20
0 0 0 0 0 0 0 0 0 0 1 5 13 20 22 23 24 22 22 25 24 21 21 22 25 27 29 28 28 30 33 35 37 39 40 40 42 43 40 34 31 28 24 20
0 0 0 0 0 0 0 0 0 0 1 5 14 21 22 22 21 20 23 28 29 27 27 27 30 33 35 34 32 33 36 37 38 40 40 42 43 41 36 32 30 28 24 21
0 0 0 0 0 0 0 0 0 0 1 5 13 19 20 19 19 21 25 30 31 31 30 31 33 37 37 37 37 38 38 38 40 42 43 42 41 37 32 28 27 25 22 19
0 0 0 0 0 0 1 1 1 0 1 7 15 19 19 19 19 21 23 26 28 28 29 28 30 33 32 31 34 36 36 36 39 42 42 40 38 34 30 27 26 25 22 18
0 0 1 1 1 1 2 2 2 2 4 11 18 20 20 20 20 18 18 21 24 25 27 27 27 26 23 22 25 28 30 31 33 35 37 35 33 32 29 28 29 28 25 21
0 0 2 3 3 2 2 3 5 6 8 13 18 18 19 20 20 18 16 18 20 23 25 26 25 22 18 17 19 21 22 24 24 25 28 30 29 29 28 27 28 29 28 26
0 0 1 2 2 1 2 4 6 8 9 11 13 14 15 18 20 18 16 15 16 17 19 21 21 20 18 17 18 18 19 19 19 19 22 25 24 24 23 20 19 21 21 21
0 0 0 1 0 1 2 4 5 7 8 8 9 11 13 16 18 17 16 15 13 12 13 16 18 18 17 17 17 18 19 19 18 18 20 20 19 19 18 14 12 11 11 11

GEFSCGP_con_probscp_192.txt.gz
Probability
0 0 0 0 0 0 0 0 0 0 0 0 0 0 1 3 3 4 4 3 1 2 4 7 10 11 14 20 26 27 24 22 19 14 9 6 5 5 5 5 3 1 1 1
0 0 0 0 0 0 0 0 0 0 0 0 0 0 1 2 3 4 5 3 1 1 4 8 12 14 17 22 24 25 25 23 20 15 9 6 5 4 4 4 3 1 0 1
0 0 0 0 0 0 0 0 0 0 0 0 0 0 0 1 1 3 4 4 1 0 4 10 14 16 20 22 22 23 24 25 23 18 11 8 7 4 3 4 3 1 0 0
0 0 0 0 0 0 0 0 0 0 0 0 0 0 0 0 0 1 3 4 2 1 4 10 14 16 20 21 20 21 25 28 28 23 18 14 9 5 2 2 2 1 0 0
0 0 0 0 0 0 0 0 0 0 0 0 0 0 0 0 0 1 3 3 2 2 4 9 14 16 18 19 19 21 25 29 31 29 27 21 12 5 3 2 2 1 0 0
0 0 0 0 0 0 0 0 0 0 0 0 0 0 0 0 0 1 2 2 2 4 5 9 14 19 20 20 19 20 23 28 31 31 30 26 18 12 8 5 4 2 1 0
0 0 0 0 0 0 0 0 0 0 0 0 0 0 0 0 0 0 1 2 4 6 7 11 17 23 25 24 23 22 24 28 29 30 28 25 21 16 12 9 7 4 2 0
0 0 0 0 0 0 0 0 0 0 0 0 0 0 0 0 1 2 4 6 9 8 9 13 19 24 27 27 27 26 28 29 27 26 25 23 18 13 10 10 8 6 4 1
0 0 0 0 0 0 0 0 0 0 0 0 0 0 0 2 5 7 10 13 14 13 12 15 20 24 25 27 28 28 29 28 25 22 22 19 14 10 8 9 10 9 8 6
0 0 0 0 0 0 0 0 0 0 0 0 0 0 2 4 7 9 13 16 19 20 20 21 24 25 25 26 28 29 29 28 25 21 21 19 16 13 11 11 13 14 14 14
0 0 0 0 0 0 0 0 0 0 0 0 0 1 4 7 8 9 12 17 23 26 28 30 31 31 29 29 31 31 31 30 28 27 27 25 22 19 16 17 18 20 20 19
0 0 0 0 0 0 0 0 0 0 0 0 0 2 6 12 14 15 18 23 28 34 38 40 42 41 39 35 34 33 33 33 33 34 37 36 31 26 23 24 25 26 25 24
0 0 1 0 0 0 0 0 0 0 0 0 0 3 9 18 24 27 30 31 35 42 48 50 51 52 50 44 40 38 37 36 37 39 41 42 38 33 31 31 32 32 32 31
0 0 0 0 0 0 0 0 0 0 0 0 0 4 13 24 31 35 36 36 40 48 54 57 58 59 57 54 50 47 46 45 44 42 41 41 40 37 35 36 36 37 37 37
0 0 0 0 0 0 0 0 0 0 0 0 1 7 18 27 33 36 36 36 41 49 55 58 60 60 60 59 57 54 54 55 53 49 44 42 42 41 40 39 40 41 41 41
0 0 0 0 0 0 0 0 0 0 0 0 3 11 21 29 35 39 39 40 43 49 55 58 57 58 58 58 57 55 57 60 61 58 54 51 50 50 49 46 45 46 46 45
0 0 0 0 0 0 0 0 0 1 2 4 9 16 22 30 37 42 44 45 48 52 57 59 58 56 55 55 55 55 57 60 63 62 59 57 57 58 57 54 51 52 52 50
1 1 1 0 0 0 0 1 1 2 5 9 14 18 22 31 39 43 45 48 52 57 61 63 60 55 53 55 57 57 57 60 62 61 58 57 57 58 58 57 56 55 55 54
2 2 1 1 0 0 0 2 4 5 8 13 17 19 22 30 37 43 47 49 53 59 63 62 56 52 53 57 60 60 60 60 60 59 56 55 56 56 55 55 55 55 55 53
2 2 1 1 1 1 1 4 7 8 10 15 19 21 25 30 38 45 50 52 52 55 57 54 48 48 52 57 59 61 61 60 59 57 54 53 55 55 53 51 51 51 51 49
1 1 1 0 0 1 3 6 11 13 15 19 23 27 31 36 43 46 48 50 49 47 46 44 41 43 49 51 52 54 55 57 57 55 52 52 52 50 49 48 47 47 46 44
1 1 1 1 3 5 7 11 17 22 24 26 29 33 37 41 45 46 45 44 41 38 36 36 36 37 41 43 42 42 46 49 51 52 52 52 50 47 45 44 43 43 42 39
4 5 5 6 9 14 15 17 23 27 29 31 33 35 37 40 42 43 41 37 32 30 32 33 31 30 34 37 36 36 39 43 44 46 49 50 50 47 44 41 40 42 41 39
9 12 13 13 15 20 22 24 26 28 29 30 31 33 34 35 38 39 36 31 25 25 29 30 27 27 29 31 32 34 38 41 41 42 43 44 46 46 43 39 38 38 39 38
11 14 16 16 18 21 24 26 28 29 28 26 27 28 28 28 30 31 29 23 20 22 25 26 25 25 25 26 28 32 37 40 41 40 38 38 41 41 38 34 31 30 29 27
10 12 14 15 18 22 24 25 27 27 26 24 24 25 25 24 24 25 24 19 18 18 21 23 24 23 22 22 25 30 35 38 40 39 36 35 37 37 34 30 25 21 18 15

GEFSCGP_con_probscp_198.txt.gz
Probability
0 0 0 0 0 0 1 2 2 1 0 0 0 1 2 2 4 12 20 22 22 25 29 32 32 35 45 52 53 47 38 31 29 28 26 25 25 21 19 19 15 11 10 9
0 0 0 0 0 0 0 1 1 1 0 0 0 1 2 4 4 10 18 20 20 24 31 37 38 40 49 56 56 51 43 37 33 30 27 25 23 20 19 20 17 13 11 10
0 0 0 0 0 0 0 0 0 0 0 0 0 0 2 4 5 8 14 18 18 21 31 41 43 45 52 59 59 54 49 45 39 34 29 28 26 23 23 24 22 16 11 10
0 0 0 0 0 0 0 0 0 0 0 0 0 0 1 4 5 7 11 16 18 20 29 41 45 46 51 56 57 56 55 51 44 37 31 31 31 30 29 29 26 20 13 11
0 0 0 0 0 0 0 0 0 0 0 0 0 0 0 2 5 6 8 13 16 19 29 41 46 47 49 52 56 59 61 56 47 39 35 34 34 34 34 34 31 26 21 18
0 0 0 0 0 0 0 0 0 0 0 0 0 0 0 1 3 5 7 10 14 19 28 42 50 52 52 53 59 65 66 62 52 44 39 36 34 33 33 35 34 31 28 27
0 0 0 0 0 0 0 0 0 0 0 0 0 0 1 1 2 4 7 10 14 19 26 39 53 58 58 58 63 69 70 65 56 49 43 39 35 33 31 32 33 30 29 30
0 0 0 0 0 0 0 0 0 0 0 0 0 0 1 1 2 4 7 11 16 20 24 34 49 60 63 62 65 71 72 66 56 52 49 45 41 34 30 31 32 30 29 29
0 0 0 0 0 0 0 0 0 0 0 0 0 2 3 4 5 5 8 13 20 24 27 33 44 56 62 64 68 74 76 70 60 56 55 51 45 36 29 30 31 32 33 33
0 0 0 0 0 0 0 0 0 0 0 0 1 4 7 9 8 6 8 16 24 29 33 36 43 51 58 62 70 78 81 78 69 62 56 51 47 39 31 28 30 33 36 39
0 0 0 0 0 0 0 0 0 0 0 0 1 5 10 14 12 9 13 20 26 31 36 40 46 54 58 62 70 77 81 80 75 68 59 54 53 50 42 36 35 37 41 44
0 0 0 0 0 0 0 0 0 0 0 0 1 5 12 17 19 20 22 28 32 37 42 47 54 62 64 65 70 75 76 75 72 70 66 62 63 63 58 51 47 47 48 48
0 0 1 0 0 0 0 0 0 0 0 0 3 9 16 21 25 29 33 38 45 51 57 61 65 69 70 70 73 75 73 70 68 69 70 70 70 70 68 62 58 57 55 53
0 0 0 0 0 0 0 0 0 0 0 1 6 15 23 26 29 34 40 48 57 65 71 74 77 78 77 76 77 76 74 72 69 68 71 73 72 71 70 66 63 63 61 59
0 0 0 0 0 0 0 0 0 0 0 3 10 21 28 31 34 39 47 55 63 69 74 78 84 86 86 83 80 76 76 78 75 71 71 72 71 69 68 66 63 63 62 60
0 0 0 0 0 0 0 0 0 0 1 4 13 24 32 37 41 46 53 60 64 65 69 75 82 86 87 86 80 76 78 80 80 77 74 71 69 67 66 64 62 61 60 59
0 1 1 0 0 0 1 1 2 2 3 6 15 26 36 45 50 51 55 61 62 63 66 70 73 76 79 80 78 76 77 78 80 79 75 71 69 67 65 63 61 59 59 59
1 2 2 1 0 1 2 4 5 5 6 10 19 29 41 49 53 53 54 57 62 65 66 65 64 65 68 71 74 75 76 76 77 77 73 70 68 67 66 64 61 60 60 60
1 2 1 0 0 1 4 7 7 8 11 17 25 32 40 47 50 53 54 54 59 64 65 63 61 61 65 68 72 74 74 75 75 74 72 70 70 68 67 66 63 61 60 59
0 0 0 0 0 1 4 7 7 9 17 26 32 34 39 46 51 54 55 53 54 57 59 59 59 60 64 69 72 73 73 72 72 71 70 69 69 67 65 64 62 59 58 57
0 0 0 0 1 3 7 10 11 15 23 31 35 37 42 49 54 54 54 54 52 51 51 51 52 56 60 65 69 71 72 70 67 64 63 62 62 61 60 60 60 58 57 56
3 2 3 5 9 13 18 20 22 25 28 32 35 40 45 50 52 51 51 51 49 47 46 45 48 52 56 60 65 68 68 65 59 55 54 56 57 55 56 58 58 58 57 55
7 7 7 13 20 25 28 30 30 30 29 31 33 37 41 44 46 46 45 43 41 41 41 42 45 48 51 54 59 61 60 56 52 50 50 52 55 54 53 53 53 52 51 49
10 10 10 15 22 26 29 31 30 27 25 26 28 31 34 36 38 39 40 40 39 38 37 37 39 42 43 46 50 53 52 50 50 51 52 52 53 51 48 45 43 41 40 39
13 13 15 17 20 22 25 27 25 22 21 23 26 29 30 30 31 34 37 40 40 38 35 34 35 36 35 37 41 45 48 49 51 53 53 50 45 42 39 34 29 26 25 25
14 17 20 22 23 23 24 24 21 20 22 24 27 29 28 27 29 32 35 39 40 38 36 34 34 33 33 34 37 42 46 47 50 52 51 45 39 34 31 27 20 15 14 15

GEFSCGP_con_probscp_204.txt.gz
Probability
0 0 0 0 0 0 0 0 0 0 0 1 2 4 3 1 0 1 2 6 9 10 10 12 16 16 17 16 14 12 11 11 11 11 9 5 2 2 2 1 0 0 0 0
0 0 0 0 0 0 0 0 0 0 0 1 2 3 3 1 1 2 3 7 9 10 12 14 19 22 21 19 17 15 14 13 12 11 9 5 1 1 1 0 0 0 0 0
0 0 0 0 0 0 0 0 0 0 0 1 2 3 2 1 2 3 5 8 11 12 13 17 23 29 29 25 23 22 21 17 12 9 7 5 2 1 1 0 0 0 1 1
0 0 0 0 0 0 0 0 0 0 0 0 1 2 1 1 2 3 4 9 14 15 15 19 26 33 35 32 30 28 25 19 12 8 7 6 4 2 1 0 0 0 1 1
0 0 0 0 0 0 0 0 0 0 0 0 0 0 1 3 3 3 4 9 15 18 19 23 27 32 37 38 34 30 26 20 15 11 8 6 3 2 1 0 0 0 0 1
0 0 0 0 0 0 0 0 0 0 0 0 0 0 1 3 3 3 5 10 15 19 23 27 27 30 37 40 37 32 28 25 21 18 13 8 5 3 1 1 0 0 0 0
0 0 0 0 0 0 0 0 0 0 0 0 0 0 1 3 3 5 10 14 15 19 25 30 30 32 38 41 40 37 35 32 29 25 20 14 9 7 5 3 3 2 2 1
0 0 0 0 0 0 0 0 0 0 0 0 0 1 2 3 5 8 15 21 21 23 28 32 33 35 40 44 44 43 42 39 35 31 26 20 15 10 8 7 7 5 4 3
0 0 0 0 0 0 0 0 0 0 0 0 1 2 3 4 7 12 22 28 27 26 31 34 35 37 42 48 49 49 48 45 40 36 30 24 20 15 12 10 8 7 5 3
0 0 0 0 0 0 0 0 0 0 0 0 1 2 3 4 8 16 26 32 30 29 33 36 37 39 44 50 53 53 52 49 45 41 34 27 24 22 18 14 11 9 6 6
0 0 0 0 0 0 0 0 0 0 0 0 1 2 4 6 10 18 28 33 33 32 34 36 40 43 46 50 54 53 52 52 50 45 38 31 27 26 23 21 18 14 11 11
0 0 0 0 0 0 0 0 0 0 0 0 1 3 5 10 15 21 28 33 35 36 36 37 42 46 48 49 52 51 52 54 52 46 40 35 31 28 25 24 22 18 15 15
0 0 0 0 0 0 0 0 0 0 0 0 1 3 8 16 22 26 31 35 40 41 40 40 43 46 46 47 49 49 50 52 51 46 43 39 34 30 27 25 23 21 18 16
0 0 0 0 0 0 0 0 0 0 0 0 1 4 12 20 26 30 35 39 43 46 45 42 41 42 42 43 45 46 46 47 49 50 49 43 37 32 29 26 26 25 23 20
0 0 0 0 0 0 0 0 0 0 1 2 4 8 15 21 26 32 37 41 44 48 47 43 38 37 39 39 41 42 43 45 50 55 53 46 39 33 28 27 28 29 29 28
0 0 0 0 0 0 0 0 1 2 3 6 10 14 18 22 27 32 39 43 45 48 47 42 37 35 34 35 37 38 40 43 49 53 52 46 41 34 29 29 30 31 32 32
0 0 0 0 0 0 0 1 3 5 7 10 15 20 22 25 28 31 37 41 43 46 46 42 37 32 30 31 34 36 36 38 44 47 48 46 43 38 35 35 35 34 33 33
0 0 0 0 0 0 1 2 4 7 10 14 21 27 29 30 33 34 34 36 38 41 44 42 36 31 30 30 32 34 33 33 37 42 45 45 44 41 39 39 39 37 36 35
0 0 0 0 0 0 1 3 5 9 14 19 24 30 33 36 38 38 35 33 34 36 39 38 35 33 31 30 31 32 31 31 34 38 41 43 43 41 39 38 39 40 39 38
0 0 0 0 0 0 2 5 8 12 17 20 24 28 32 36 38 37 34 32 32 32 33 33 33 33 30 27 26 26 26 27 29 32 35 38 39 39 38 38 39 41 41 41
0 0 0 0 0 0 3 8 10 12 15 18 20 24 28 32 33 32 31 29 28 28 27 26 26 27 24 21 21 20 19 18 21 25 29 32 33 33 34 36 37 37 38 40
0 0 0 1 1 2 5 8 10 10 12 14 16 20 24 27 28 27 27 25 23 22 21 18 17 17 15 14 14 14 13 12 13 18 24 27 27 26 26 28 29 28 29 31
0 0 2 4 5 6 8 10 12 12 13 13 13 15 19 22 22 21 21 19 18 18 15 12 10 8 6 6 7 8 9 9 10 12 16 19 20 20 20 20 19 17 17 19
1 2 5 9 10 10 11 12 14 15 16 15 14 13 15 18 19 17 15 13 12 11 9 7 5 2 1 1 2 3 4 6 7 8 10 12 14 16 16 15 12 10 9 9
1 3 6 8 9 10 9 10 12 15 16 17 15 14 14 16 16 12 9 7 5 4 4 3 2 0 0 0 0 1 1 2 4 5 6 8 10 12 13 12 9 6 3 3
1 3 4 5 6 6 6 8 10 13 16 17 16 15 14 14 12 8 4 3 1 1 1 1 1 1 0 0 0 0 0 1 2 3 3 5 7 10 12 10 7 5 2 1

GEFSCGP_con_probscp_210.txt.gz
Probability
0 0 0 0 0 0 0 0 0 0 0 0 0 0 0 0 0 0 0 0 1 1 0 0 1 3 4 2 1 0 0 0 0 0 0 0 0 0 0 0 0 0 0 0
0 0 0 0 0 0 0 0 0 0 0 0 0 0 0 0 0 0 0 1 2 2 1 0 1 3 3 1 0 0 0 0 0 1 1 0 0 0 0 0 0 0 0 0
0 0 0 0 0 0 0 0 0 0 0 0 0 0 0 0 0 0 0 1 3 4 3 2 2 2 2 1 0 0 1 1 2 3 3 2 1 1 2 1 1 0 0 0
0 0 0 0 0 0 0 0 0 0 0 0 0 0 0 0 0 0 0 1 3 5 6 5 3 2 2 1 1 2 4 5 5 5 5 5 4 3 3 3 2 1 1 0
0 0 0 0 0 0 0 0 0 0 0 0 0 0 0 0 0 0 0 1 3 5 6 6 4 2 2 3 3 5 8 8 7 7 7 7 6 4 3 3 3 3 2 1
0 0 0 0 0 0 0 0 0 0 0 0 0 0 0 0 0 0 2 4 5 7 7 7 6 5 5 7 7 8 9 9 8 8 8 7 6 5 4 3 3 3 3 3
0 0 0 0 0 0 0 0 0 0 0 0 0 0 0 0 0 1 3 5 6 8 10 11 12 12 13 14 13 13 12 11 11 10 9 8 7 6 4 3 2 2 3 4
0 0 0 0 0 0 0 0 0 0 0 0 0 0 0 0 0 1 4 6 8 10 14 17 18 20 22 23 23 22 19 18 18 15 10 9 9 7 5 2 1 1 3 5
0 0 0 0 0 0 0 0 0 0 0 0 0 0 0 0 0 1 5 9 11 13 16 19 22 26 30 32 32 32 29 26 24 21 15 12 13 12 8 5 4 3 4 6
0 0 0 0 0 0 0 0 0 0 0 0 0 0 0 1 0 1 5 11 12 13 17 21 24 29 33 35 37 38 34 30 28 26 22 18 18 19 16 12 10 8 9 9
0 0 0 0 0 0 0 0 0 0 0 0 0 0 0 1 1 1 5 10 12 14 18 23 25 28 31 34 37 38 34 31 30 30 28 24 24 25 24 20 17 15 15 15
0 0 0 1 1 0 0 0 0 0 0 0 0 0 2 4 5 5 7 10 14 17 20 24 27 31 34 36 37 37 34 33 34 34 31 28 28 31 31 27 23 21 19 18
0 0 0 1 1 0 0 0 0 0 0 0 0 1 4 9 12 12 12 13 16 19 21 25 31 35 38 39 39 37 36 36 36 35 33 31 32 35 36 33 28 23 20 19
0 0 0 1 1 0 1 1 0 0 0 0 0 1 5 12 16 17 16 17 20 20 21 25 32 35 36 38 38 37 37 37 35 35 34 33 34 37 38 36 31 25 20 18
0 0 0 0 0 0 2 2 1 0 0 0 1 2 5 10 15 16 16 18 22 23 22 25 29 31 31 31 32 33 35 36 35 34 33 32 32 35 37 36 32 26 21 19
0 0 0 1 0 0 2 3 2 1 0 1 2 4 6 10 14 15 16 18 22 24 24 24 25 26 25 24 24 28 33 35 34 32 28 26 25 27 31 32 30 28 25 22
0 0 0 0 0 0 2 2 2 2 1 1 3 5 8 12 14 16 17 18 22 25 24 23 23 23 21 20 22 26 31 33 32 28 23 19 18 20 22 26 29 30 27 23
0 0 0 0 0 0 1 1 1 2 2 2 5 8 13 15 16 17 18 20 23 25 24 23 24 23 21 21 23 25 26 28 28 23 19 16 15 17 20 23 26 28 25 23
0 0 0 0 0 0 1 2 1 1 2 5 9 14 17 18 18 19 19 21 24 24 23 24 25 23 21 21 23 22 22 23 23 20 17 15 14 16 20 21 21 22 22 21
0 0 0 0 0 0 1 2 2 1 1 6 13 17 19 19 18 18 20 21 22 22 22 24 25 23 21 19 19 19 19 19 19 17 17 14 13 14 17 19 18 19 20 20
0 0 0 0 0 0 0 1 2 1 1 6 11 16 17 18 17 18 20 22 22 21 21 22 22 19 16 15 14 13 13 13 13 14 16 14 13 14 16 17 17 19 21 22
0 0 0 0 0 0 0 0 1 1 2 6 10 12 14 16 18 19 20 22 22 21 19 17 15 12 9 9 9 8 8 8 10 12 13 13 12 14 16 16 17 19 22 23
1 1 1 1 1 1 1 1 1 2 4 8 11 10 10 14 17 17 16 16 17 17 14 10 9 9 6 5 5 5 5 5 7 9 9 9 10 11 12 14 16 19 22 22
3 3 3 3 3 3 3 2 1 2 6 11 12 10 9 10 12 11 9 8 9 10 8 5 6 6 5 3 3 3 2 2 4 5 6 6 6 7 9 11 13 16 19 19
3 4 5 5 5 4 3 2 1 3 7 10 11 9 8 8 7 5 4 3 4 4 3 2 3 4 3 2 1 1 1 1 2 3 4 4 3 4 5 6 7 9 11 12
2 4 4 4 4 4 2 1 1 2 6 8 9 9 8 6 5 4 3 3 2 2 1 1 1 2 2 2 1 0 0 0 1 1 2 1 2 3 3 2 2 4 5 5

GEFSCGP_con_probscp_216.txt.gz
Probability
0 0 0 0 0 0 0 0 0 0 0 0 0 0 1 1 1 1 2 3 2 1 1 2 3 3 4 6 6 5 5 5 5 4 2 0 0 0 0 0 0 0 1 1
0 0 0 0 0 0 0 0 0 0 0 0 0 0 0 0 0 1 2 3 3 3 3 4 4 4 5 6 7 6 6 6 7 6 2 1 1 0 0 0 0 1 2 3
0 0 0 0 0 0 0 0 0 0 0 0 0 0 0 0 0 0 2 3 4 4 6 7 7 6 6 6 7 7 8 10 11 8 3 2 3 2 1 1 1 1 3 5
0 0 0 0 0 0 0 0 0 0 0 0 0 0 0 1 0 0 2 4 5 6 7 10 9 6 6 7 7 7 9 12 13 10 5 3 3 3 3 3 3 3 4 6
0 0 0 0 0 0 0 0 0 0 0 0 0 0 0 0 0 0 1 4 6 7 9 11 8 5 5 7 9 9 11 14 15 12 10 7 5 4 4 4 3 3 5 7
0 0 0 0 0 0 1 1 1 0 0 0 0 0 0 0 0 0 2 4 6 8 11 13 11 8 8 11 13 15 18 20 18 15 13 11 9 7 6 5 4 4 5 7
0 0 0 0 0 1 2 2 2 1 0 0 0 0 1 1 1 1 4 6 7 8 12 16 18 16 15 18 20 24 27 28 23 18 15 13 13 11 9 8 6 6 6 6
0 0 0 0 0 1 2 2 1 1 0 0 0 1 1 1 2 5 9 11 10 11 13 17 21 20 19 21 25 29 32 31 27 23 21 18 16 14 13 12 11 9 8 7
0 0 0 0 0 1 1 0 0 0 0 0 0 1 1 2 4 9 13 15 15 14 14 16 19 20 19 22 26 30 31 31 29 28 26 24 21 19 18 18 18 16 14 13
0 0 0 0 0 0 0 0 0 1 1 1 0 0 1 4 8 12 14 16 17 17 15 15 18 22 23 25 29 31 33 32 31 29 26 25 24 23 22 23 25 26 26 26
0 0 0 0 0 0 0 0 0 2 2 1 0 1 3 5 9 12 14 15 16 18 17 17 21 26 31 33 35 37 37 34 31 28 27 28 26 25 27 30 32 34 35 35
0 1 1 1 0 0 0 0 0 1 2 1 0 2 6 9 12 14 15 13 15 18 21 24 29 33 37 41 44 44 40 36 35 35 37 38 36 34 37 39 40 41 40 39
0 1 2 1 0 0 0 0 0 1 1 1 0 3 8 13 16 17 17 16 17 20 25 32 37 40 42 45 49 49 45 42 44 46 49 51 51 49 48 47 45 46 43 41
0 1 1 1 1 0 0 0 0 0 1 1 1 4 8 14 16 17 19 20 21 24 29 36 43 46 46 47 50 51 49 48 51 54 56 58 59 59 55 50 48 46 44 42
0 0 1 2 2 1 0 0 0 0 1 2 2 6 13 17 18 17 18 21 23 26 31 37 42 46 47 48 50 50 49 50 52 54 56 57 58 60 59 54 50 47 42 41
0 0 0 1 1 1 0 0 0 1 2 3 5 12 21 24 21 18 17 19 22 26 32 36 38 41 44 46 47 47 48 50 50 51 52 53 54 56 55 53 52 50 46 43
0 0 0 0 1 0 0 1 2 3 4 7 12 20 27 27 22 17 17 19 21 25 31 35 36 37 40 43 45 45 48 49 48 46 46 47 50 51 48 46 47 48 46 45
0 0 0 0 1 1 1 3 5 7 9 13 19 25 27 25 20 18 21 23 23 25 30 34 37 36 37 41 43 43 45 46 44 43 44 44 44 44 42 40 41 41 40 40
0 0 0 0 1 1 2 5 8 10 13 18 22 26 26 22 18 20 25 27 26 26 28 33 37 36 37 41 43 41 42 42 41 41 42 40 37 36 35 34 35 37 37 36
0 0 0 0 1 2 5 7 10 12 17 23 27 29 27 23 20 22 27 27 25 26 29 32 35 35 35 39 41 40 40 40 38 37 37 33 29 28 28 29 30 32 34 34
0 0 0 0 1 4 8 12 14 17 22 26 30 32 31 27 26 26 28 26 24 27 31 34 35 34 33 35 37 36 36 36 35 33 31 28 24 22 22 25 26 26 28 30
2 2 2 2 4 7 11 14 17 20 23 25 27 29 31 29 27 27 28 27 26 28 31 32 32 33 34 34 32 31 32 32 32 31 28 24 19 16 16 18 19 20 23 26
4 4 4 5 6 8 9 10 13 17 21 23 24 27 28 26 24 24 26 27 28 28 28 27 28 32 34 33 29 27 27 28 27 25 22 19 17 15 14 15 16 17 20 22
4 4 5 5 6 6 5 5 7 11 16 20 23 25 24 23 23 23 24 26 26 25 25 24 26 29 30 28 24 21 22 23 21 19 18 18 17 16 15 15 15 16 17 17
4 4 6 6 5 4 4 4 6 9 12 16 18 19 18 19 22 22 23 24 22 21 22 22 23 24 23 20 16 14 15 16 17 17 17 16 15 15 15 14 12 11 11 10
4 6 7 7 5 4 4 6 8 10 11 12 13 13 13 16 19 21 22 22 19 18 19 19 19 18 16 13 11 11 11 13 15 17 17 14 13 14 13 11 8 5 4 4

GEFSCGP_con_probscp_222.txt.gz
Probability
0 0 0 0 0 0 0 0 0 0 0 0 0 0 1 2 1 2 5 9 13 15 16 17 18 21 29 41 43 36 30 27 22 15 12 12 9 7 6 9 13 13 11 9
0 0 0 0 0 0 0 0 0 0 0 0 0 1 1 1 2 3 6 11 16 20 23 24 24 25 32 41 44 38 32 28 22 16 12 12 11 9 8 11 14 14 11 10
0 0 0 0 0 0 0 0 0 0 0 0 1 2 1 1 3 5 7 12 19 25 32 34 33 32 37 43 44 38 36 31 23 17 14 13 13 12 13 16 18 17 15 13
0 0 0 0 0 0 0 0 0 0 0 1 2 2 1 1 3 5 7 12 19 28 35 39 38 37 39 42 42 39 38 34 27 21 17 15 14 13 17 21 21 21 18 15
0 0 0 0 0 0 0 0 0 1 1 2 2 1 0 1 4 6 8 11 20 28 34 37 39 39 38 38 38 38 38 36 31 26 23 20 16 16 19 22 24 24 20 18
0 0 0 0 0 0 0 0 1 2 3 3 2 1 1 3 5 8 9 12 19 28 35 39 43 46 43 38 37 38 41 39 33 29 28 27 23 22 23 24 26 25 23 21
0 0 0 0 0 0 1 1 1 2 3 3 2 2 5 9 11 13 14 14 18 27 37 44 51 56 53 47 44 45 48 47 39 33 31 31 29 28 28 28 28 25 23 23
0 0 0 0 0 1 2 2 1 2 2 2 2 5 10 14 17 18 19 18 19 25 34 43 52 60 61 57 55 56 60 58 50 41 35 34 34 32 32 31 30 26 24 24
0 0 0 0 0 1 1 1 1 1 1 1 3 8 13 17 18 19 19 18 19 22 28 38 48 57 61 61 61 66 71 69 60 50 42 38 39 36 34 32 30 27 26 26
0 0 0 0 0 0 0 1 1 1 1 1 3 8 16 20 18 16 16 17 19 20 25 35 45 51 55 57 60 68 75 73 66 58 51 46 45 42 38 35 33 31 30 29
0 0 0 0 0 0 0 0 1 2 2 1 3 9 17 20 18 15 15 18 21 21 25 34 41 46 49 52 58 67 74 73 68 64 59 56 56 53 47 44 43 41 39 38
0 0 0 0 0 0 0 0 1 3 3 1 3 9 16 17 16 16 18 21 22 22 26 35 41 45 49 54 62 69 73 72 70 69 67 67 68 65 59 56 54 52 50 50
0 0 0 0 0 0 0 0 1 2 3 2 3 9 16 18 19 21 24 26 25 26 30 36 43 48 55 62 68 71 71 70 69 69 70 72 73 69 64 61 60 58 57 56
0 0 0 0 0 0 1 0 1 2 3 2 3 8 17 23 25 28 31 32 31 33 37 40 45 53 60 66 71 73 72 70 67 67 69 70 71 68 64 61 61 60 58 55
0 0 0 0 0 0 0 0 0 1 1 2 3 9 20 28 31 35 38 39 38 40 43 46 50 56 62 65 68 70 73 73 70 68 67 66 66 66 65 62 62 60 56 53
0 1 1 0 0 0 0 0 0 0 0 1 4 12 24 32 35 37 41 43 43 43 44 47 53 59 63 64 64 66 69 72 73 70 66 63 63 64 64 63 61 58 55 53
1 2 1 0 0 0 0 1 1 2 3 4 10 20 30 36 39 41 42 44 44 43 42 42 50 57 60 61 62 62 63 65 67 68 64 60 60 60 60 58 57 57 55 54
1 2 1 0 0 0 1 2 4 6 9 12 18 27 34 37 40 41 41 41 42 42 39 38 41 48 53 57 57 57 58 59 60 59 57 54 53 53 53 54 54 54 53 53
1 1 1 0 0 0 2 4 6 10 15 19 25 33 36 35 35 36 38 39 41 40 38 37 37 43 50 55 55 53 54 55 54 52 50 48 46 46 47 50 52 51 49 49
0 0 0 0 0 1 3 5 6 11 18 25 33 39 39 36 35 35 38 39 39 39 39 38 39 45 51 53 53 53 52 52 51 50 49 48 45 43 44 47 49 47 45 44
0 0 0 0 1 3 7 9 11 16 23 30 35 40 42 41 40 39 39 38 37 37 38 38 40 45 47 48 48 48 48 47 47 48 49 49 46 43 43 45 45 43 41 40
1 2 3 4 7 10 14 18 22 27 30 31 32 36 39 39 37 37 38 37 36 35 36 36 39 41 42 42 42 41 42 43 43 44 46 46 44 42 41 41 40 38 36 34
6 7 8 11 14 17 19 23 29 31 30 28 28 30 31 29 29 32 36 37 35 34 34 36 37 38 38 39 38 38 38 40 41 42 43 42 40 38 36 32 30 30 30 28
9 10 10 12 14 15 17 21 25 23 21 21 22 23 23 23 24 29 35 38 36 33 32 34 36 37 37 37 38 39 39 39 40 39 38 34 32 30 28 23 21 22 22 22
8 9 9 9 10 11 14 17 18 16 15 16 17 18 20 22 24 28 33 37 35 32 30 33 36 36 35 36 37 37 37 36 35 32 28 23 21 21 21 18 16 15 14 13
5 7 8 8 8 11 14 15 15 14 15 15 15 17 20 22 25 28 32 35 33 30 30 33 35 34 34 34 34 34 33 31 29 26 21 17 14 17 18 17 14 10 8 8

GEFSCGP_con_probscp_228.txt.gz
Probability
0 0 0 0 0 0 0 0 0 1 2 3 3 3 4 5 5 4 4 6 7 7 9 12 12 13 14 12 9 9 12 9 6 4 3 3 3 3 3 3 3 3 3 3
0 0 0 0 0 0 0 0 0 0 1 2 3 3 4 5 5 3 3 5 7 10 13 14 15 16 18 15 12 12 14 12 7 3 2 2 2 2 2 3 4 4 4 4
0 0 0 0 0 0 0 0 0 0 0 1 2 2 2 3 3 2 2 4 8 12 14 15 18 20 21 19 16 16 17 15 10 5 3 2 1 1 1 3 4 5 4 5
0 0 0 0 0 0 0 0 0 0 0 0 0 1 2 2 3 4 4 5 7 10 12 15 18 22 23 22 21 21 21 18 15 11 9 6 2 1 2 3 5 5 4 5
0 0 0 0 0 0 0 0 0 0 0 0 0 0 2 3 5 7 8 7 7 9 11 14 17 21 24 25 25 26 25 22 20 18 16 11 6 3 3 3 4 4 3 3
0 0 0 0 0 0 0 0 0 0 0 0 0 0 2 4 6 9 12 13 10 10 13 15 18 22 24 26 28 29 28 25 22 20 18 13 9 7 5 5 4 4 2 1
0 0 0 0 0 0 0 0 0 0 0 0 0 0 1 3 5 9 14 17 13 12 13 15 18 22 24 25 29 31 29 26 23 20 16 14 12 10 9 8 6 5 3 1
0 0 0 0 0 0 0 0 0 0 0 0 0 1 1 2 4 8 14 16 13 11 11 13 16 21 23 25 29 33 33 30 25 21 18 15 14 13 12 11 10 8 5 4
0 0 0 0 0 0 0 0 0 0 0 0 1 2 2 3 4 8 13 15 13 11 10 12 16 20 24 29 34 38 39 36 31 28 25 20 18 17 16 14 14 13 10 8
0 0 0 0 0 0 0 0 0 0 0 0 1 2 3 4 5 7 12 16 15 13 14 18 22 23 25 33 40 44 44 40 37 38 34 28 24 22 20 18 18 17 14 11
0 0 0 0 0 0 0 0 0 0 0 0 0 1 3 4 5 7 11 16 17 17 19 22 24 25 27 35 42 47 48 43 40 42 40 35 30 27 25 23 20 19 16 14
0 0 0 0 0 0 0 0 0 0 0 0 0 1 4 7 9 10 11 14 18 20 21 22 23 26 29 34 39 45 50 47 42 42 42 39 36 33 30 26 23 21 17 15
0 0 0 0 0 0 0 0 0 0 0 0 0 3 8 13 14 13 13 15 19 21 22 22 24 27 29 32 37 42 47 48 45 45 44 42 41 39 35 30 28 27 22 19
0 0 0 0 0 0 0 0 0 0 0 0 1 6 12 16 17 16 16 19 21 22 22 22 24 28 30 33 36 40 44 46 46 46 45 43 43 41 37 34 33 33 29 25
0 0 0 0 0 0 0 0 0 0 1 2 4 9 14 17 19 19 20 24 25 25 24 24 27 31 35 35 36 37 40 43 45 44 43 42 40 39 38 36 36 35 32 29
0 0 0 0 0 0 0 0 1 2 4 6 8 12 16 21 23 23 25 28 29 28 28 28 32 35 37 37 36 36 37 39 41 41 40 38 36 35 36 35 34 32 30 29
0 0 0 0 0 0 0 2 5 6 7 9 11 15 19 24 25 25 25 28 30 30 29 29 31 32 33 36 37 36 36 37 37 36 35 33 32 32 33 31 29 29 28 28
0 0 0 0 0 1 2 5 8 8 9 10 13 17 21 25 26 24 24 26 27 27 26 27 27 27 30 34 36 36 35 35 34 33 32 30 29 30 30 29 26 25 25 25
1 0 0 0 1 2 4 7 8 9 10 12 15 17 20 23 25 25 27 27 25 23 23 25 26 26 29 33 34 33 32 31 31 30 30 30 29 28 28 27 25 22 22 22
2 1 0 1 1 3 6 9 8 8 11 14 16 18 19 21 22 24 27 28 25 22 22 24 25 25 26 29 29 29 29 29 28 28 29 31 30 29 26 25 23 21 20 20
2 1 1 2 3 4 7 11 10 8 9 12 15 16 17 17 17 20 23 24 24 24 24 24 23 22 22 24 24 25 27 28 28 27 27 28 28 27 24 21 20 20 20 19
3 3 2 2 2 3 7 10 10 9 8 10 12 13 13 12 12 16 19 19 20 22 24 24 22 20 20 22 24 25 26 28 28 26 24 23 23 22 20 17 16 16 16 14
2 3 3 3 3 4 6 7 8 9 10 10 11 11 9 7 8 13 16 16 16 17 20 22 20 19 21 23 24 24 25 27 28 25 21 19 18 17 15 14 14 13 12 10
2 2 4 5 6 7 7 7 7 9 10 11 11 10 7 5 5 9 13 14 14 14 16 18 18 19 21 23 24 24 24 24 25 23 20 17 16 14 13 12 11 11 9 7
2 3 5 6 8 9 8 6 5 7 8 9 8 6 5 4 4 6 9 12 12 13 14 15 16 18 20 23 24 23 21 21 21 20 16 14 12 11 11 9 8 7 6 5
3 4 5 6 7 8 7 5 5 5 7 7 5 3 3 3 3 4 7 11 12 11 12 14 15 17 19 22 23 23 20 18 18 16 13 10 9 9 8 6 5 4 4 3

GEFSCGP_con_probscp_234.txt.gz
Probability
0 0 0 0 0 0 0 0 0 0 0 0 1 0 0 0 1 2 3 3 3 3 3 2 2 3 5 5 4 3 3 3 2 1 0 0 0 0 0 0 0 0 0 0
0 0 0 0 0 0 0 0 0 0 0 0 1 0 0 0 0 1 2 3 3 4 3 3 2 3 4 5 4 3 3 3 3 1 0 0 0 0 0 0 0 0 0 0
0 0 0 0 0 0 0 0 0 0 0 0 0 0 0 0 0 0 1 1 2 3 3 4 4 4 5 5 4 3 3 3 3 2 1 0 0 0 0 0 0 0 0 0
0 0 0 0 0 0 0 0 0 0 0 0 0 0 0 1 1 1 1 1 2 2 3 4 6 6 7 7 5 4 3 3 4 4 3 1 1 0 0 0 0 0 0 0
0 0 0 0 0 0 0 0 0 0 0 0 0 0 1 2 2 2 2 2 3 4 4 5 6 8 9 9 9 6 5 5 7 8 7 4 3 1 0 0 0 0 0 0
0 0 0 0 0 0 0 0 0 0 0 0 0 0 2 3 3 3 3 3 4 6 6 5 6 8 9 10 12 12 9 8 10 11 10 7 5 3 2 1 1 0 0 0
0 0 0 0 0 0 0 0 0 0 0 0 0 0 1 2 2 2 1 2 4 7 7 5 5 6 7 9 12 15 13 10 10 11 11 9 7 5 4 3 2 1 1 1
0 0 0 0 0 0 0 0 0 0 0 0 0 0 0 1 1 1 1 2 4 6 6 5 5 6 7 8 11 14 14 11 10 10 10 10 9 8 6 4 3 4 4 4
0 0 0 0 0 0 0 0 0 0 0 0 0 0 0 1 2 3 3 3 4 4 5 5 4 6 7 8 10 14 14 12 9 8 9 9 10 9 8 6 5 5 6 6
0 0 0 0 0 0 0 0 0 0 0 0 0 0 0 1 3 4 3 3 3 3 4 4 6 7 8 9 11 14 15 12 9 8 8 10 11 10 9 8 7 6 6 6
0 0 0 0 0 0 0 0 0 0 0 0 0 0 0 1 2 2 2 2 3 2 3 5 8 9 9 11 13 16 16 13 9 8 10 12 13 12 11 11 10 9 8 8
0 0 0 0 0 0 0 0 0 0 0 0 0 0 1 2 2 2 3 5 4 2 3 6 9 10 10 12 15 18 19 17 14 14 15 17 17 16 15 14 14 14 14 13
0 0 0 0 0 0 0 0 0 0 0 0 0 1 2 3 3 4 8 9 6 4 5 7 9 10 10 12 16 20 22 22 22 22 23 24 23 21 20 19 19 21 20 18
0 0 0 0 0 0 0 0 0 0 0 0 0 1 3 5 6 9 12 13 9 7 7 9 10 10 11 13 17 22 25 27 27 29 30 30 29 27 25 23 22 24 24 21
0 0 0 0 0 0 0 0 0 0 0 0 1 3 5 9 11 13 15 14 11 10 11 11 10 10 11 14 19 23 25 27 28 30 31 32 32 31 29 26 24 25 25 24
0 0 0 0 0 0 0 0 0 0 0 1 3 6 9 12 14 16 17 15 14 14 13 12 11 9 12 18 23 25 25 25 26 27 27 29 31 30 29 27 26 26 26 25
0 0 0 0 0 0 0 1 1 2 2 3 4 7 10 12 15 17 18 17 17 16 16 15 13 11 15 23 27 27 24 23 24 24 24 25 26 27 26 26 28 27 25 24
0 0 0 0 0 0 1 2 3 5 6 6 7 10 11 13 15 17 17 18 18 18 18 18 16 15 17 22 25 25 24 22 22 21 20 20 22 23 23 24 25 25 23 22
0 0 0 0 0 1 2 3 5 6 6 7 9 12 12 13 13 12 12 15 17 19 19 19 18 17 17 18 19 21 22 22 21 20 19 18 20 21 22 23 22 22 22 20
0 0 0 0 0 1 2 3 3 4 4 5 8 10 10 10 8 6 6 10 15 17 19 18 17 16 17 16 15 16 18 19 19 20 20 20 20 21 22 22 21 21 20 17
0 0 0 0 0 0 1 2 3 3 3 4 5 6 6 5 3 3 5 8 12 15 16 17 17 17 16 15 14 14 14 15 16 18 20 21 21 21 21 21 21 20 17 14
0 0 0 0 0 0 1 3 4 4 4 4 4 3 4 4 4 5 6 9 12 14 14 15 17 17 15 14 14 13 12 13 14 15 17 19 20 20 20 20 19 18 16 15
0 0 0 1 1 1 2 3 4 5 6 6 4 3 4 5 5 6 8 10 12 13 14 14 15 16 15 13 14 14 13 13 13 13 13 15 17 18 19 19 19 17 16 16
1 1 1 2 2 3 3 3 3 5 7 7 4 3 3 4 5 5 7 8 10 11 13 14 15 16 15 14 14 15 16 15 13 12 10 10 13 16 17 17 16 16 15 15
2 2 3 3 3 3 3 2 2 4 6 5 3 2 3 3 3 3 4 5 6 8 10 13 14 14 15 15 15 16 17 16 14 12 10 8 10 13 13 12 11 10 10 10
3 3 3 3 2 2 2 1 1 2 2 2 1 1 2 3 2 1 1 2 4 5 7 10 12 12 14 15 15 16 17 16 15 13 10 8 8 10 10 8 6 5 5 5

GEFSCGP_con_probscp_240.txt.gz
Probability
0 0 0 0 0 0 0 0 0 0 0 0 0 0 0 0 0 1 2 4 6 4 1 1 3 4 4 5 6 7 9 11 9 6 4 4 4 3 3 3 2 1 1 1
0 0 0 0 0 0 0 0 0 0 0 0 0 0 0 0 0 0 1 4 5 3 1 1 3 4 5 7 7 6 8 11 10 8 6 5 4 3 3 3 2 1 1 1
0 0 0 0 0 0 0 0 0 0 0 0 0 0 0 0 0 0 1 2 3 2 1 1 3 4 5 6 6 5 7 10 11 10 8 7 6 4 4 3 1 1 1 2
0 0 0 0 0 0 0 0 0 0 0 0 0 0 0 0 0 1 1 3 4 4 3 3 3 4 3 3 5 7 9 11 11 11 10 8 7 5 5 3 1 1 2 2
0 0 0 0 0 0 0 0 0 0 0 0 0 0 0 0 0 1 2 3 4 5 5 4 4 3 2 2 5 10 14 15 14 13 12 11 8 7 5 4 3 2 3 3
0 0 0 0 0 0 0 0 0 0 0 0 0 0 0 1 1 2 3 3 3 5 5 5 5 4 4 5 8 14 19 20 19 16 14 13 10 7 5 5 4 4 4 4
0 0 0 0 0 0 0 0 0 0 0 0 0 0 1 2 3 4 4 4 3 5 7 7 6 7 7 9 12 18 22 23 21 19 16 13 10 6 5 6 7 6 5 5
0 0 0 0 0 0 0 0 0 0 0 0 0 0 1 2 3 3 3 3 4 5 7 7 7 8 8 10 14 20 23 22 21 21 18 13 10 6 6 8 8 6 6 6
0 0 0 0 0 0 0 0 0 0 0 0 0 0 1 2 2 2 1 2 4 6 7 8 8 9 8 9 13 18 22 22 23 22 19 15 12 9 7 8 7 6 6 6
0 0 0 0 0 0 0 0 0 0 0 0 0 0 1 3 3 2 1 2 5 8 9 10 11 11 9 9 12 15 19 21 22 22 19 15 14 12 10 9 9 9 9 9
0 0 0 0 0 0 0 0 0 0 0 0 0 0 2 4 5 4 5 6 9 11 13 14 15 14 14 14 14 16 18 19 19 19 18 16 16 15 14 14 15 15 14 14
0 0 0 0 0 0 0 0 0 0 0 0 0 1 2 4 6 7 10 13 13 13 16 18 19 20 21 20 20 21 20 19 17 17 19 20 21 21 20 21 23 23 22 20
0 0 0 0 0 0 0 0 0 0 0 0 0 1 3 4 8 11 16 19 16 16 20 24 26 27 27 28 30 30 28 25 22 22 23 26 30 31 28 27 28 30 30 29
0 0 0 0 0 0 0 0 0 0 0 0 1 2 3 6 10 15 20 22 20 21 27 31 33 32 32 34 37 38 36 34 33 33 32 33 36 37 35 32 33 36 36 35
0 0 0 0 0 0 0 0 0 0 0 1 3 3 3 7 12 17 23 25 24 26 32 37 37 35 34 36 39 41 42 42 42 43 43 41 39 38 37 36 37 39 39 37
0 0 0 0 0 0 0 0 0 1 1 2 2 2 3 8 14 20 24 25 26 27 31 34 35 33 33 35 38 41 43 45 46 48 48 47 43 40 38 36 37 38 37 36
0 0 0 0 0 0 0 0 0 1 2 2 1 1 3 9 16 21 22 24 27 28 29 29 29 28 29 33 38 42 45 47 48 49 49 48 45 41 38 36 35 36 36 35
0 0 0 0 0 0 0 0 0 1 1 1 1 3 5 10 16 18 20 24 27 30 29 28 27 27 26 29 35 43 48 49 48 47 47 46 43 39 37 35 34 35 35 35
0 0 0 0 0 0 0 0 0 0 1 2 4 6 9 13 15 16 19 23 25 27 28 27 26 26 26 26 31 38 44 46 46 44 43 42 39 36 34 34 33 33 32 32
0 0 0 0 0 0 0 0 0 0 1 4 6 9 12 14 16 19 22 24 23 23 24 24 25 27 29 29 30 33 37 39 39 37 35 34 33 32 31 31 31 31 30 29
0 0 0 0 0 0 0 0 1 2 5 7 8 10 12 14 18 22 26 27 24 23 23 23 24 29 32 32 31 31 33 34 33 31 28 28 28 29 29 29 30 30 29 29
0 0 0 0 0 1 1 1 3 7 11 12 11 10 10 13 19 24 26 25 24 24 23 22 23 25 28 29 29 30 30 29 30 29 27 26 27 27 28 29 28 27 27 27
1 1 1 1 1 3 4 4 6 9 13 15 15 13 12 14 18 21 21 20 20 20 20 19 20 20 21 24 28 29 27 27 29 29 28 27 26 27 28 28 26 24 22 22
2 2 2 2 3 5 5 6 7 8 11 15 16 16 16 16 16 15 15 15 16 16 15 16 18 20 21 24 27 27 25 26 28 28 26 25 24 25 25 24 22 20 18 18
4 4 4 4 5 6 6 6 6 7 9 12 14 15 16 15 13 12 12 13 14 13 12 14 18 21 24 25 26 23 21 23 25 26 24 22 21 21 19 17 15 14 13 14
5 5 4 5 7 6 6 6 6 7 9 10 12 13 13 13 12 11 11 13 14 12 11 13 16 20 24 24 23 21 19 19 23 24 23 20 18 17 15 12 10 8 8 10

GEFSCGP_con_probscp_246.txt.gz
Probability
0 0 0 0 0 0 0 0 0 0 0 0 0 1 1 2 2 5 9 12 12 12 14 16 16 18 25 33 36 29 22 23 22 15 10 11 12 11 10 10 11 9 7 7
0 0 0 0 0 0 0 0 0 0 0 0 0 1 2 3 3 5 11 15 15 15 18 20 20 21 25 34 37 31 25 25 24 17 11 11 12 11 11 13 14 12 10 9
0 0 0 0 0 0 0 0 0 0 0 0 0 2 5 6 4 6 13 18 19 21 25 26 25 24 26 32 36 33 31 29 26 21 15 12 13 13 14 17 19 18 14 12
0 0 0 0 0 0 0 0 0 0 0 0 0 2 6 7 5 6 11 15 20 25 30 31 30 28 29 32 36 39 39 35 30 24 19 14 13 13 14 17 21 21 19 16
0 0 0 0 0 0 0 0 0 0 0 0 0 1 5 8 6 6 7 10 17 25 31 35 36 35 35 37 42 46 47 43 36 29 23 19 15 14 15 16 19 22 21 20
0 0 0 0 0 0 0 0 0 0 0 0 0 1 4 7 8 7 7 8 14 23 32 38 42 43 42 43 46 50 53 51 43 34 28 25 22 20 19 19 20 22 23 23
0 0 0 0 0 0 0 0 0 0 0 0 0 1 4 8 8 7 7 8 12 21 30 38 44 47 46 46 46 49 56 55 48 41 35 32 30 26 24 23 24 23 22 22
0 0 0 0 0 0 0 0 0 0 0 0 0 3 7 8 7 6 7 8 12 19 26 35 44 48 47 46 44 47 55 57 52 47 43 39 36 30 28 29 27 24 20 18
0 0 0 0 0 0 0 0 0 0 0 0 1 6 10 10 7 7 8 9 12 17 23 31 40 46 46 44 43 47 55 58 54 50 49 46 42 37 36 36 32 27 24 21
0 0 0 0 0 0 0 0 0 0 0 0 2 6 10 11 10 9 10 12 14 15 20 29 37 41 40 39 41 47 55 60 56 52 50 48 46 44 41 39 37 34 32 31
0 0 0 0 0 0 0 0 0 0 0 0 1 5 8 11 11 11 13 16 19 18 20 30 37 38 36 36 40 46 54 60 59 55 51 49 48 46 42 39 38 38 38 40
0 0 0 0 0 0 0 0 0 0 1 0 1 4 7 9 12 13 15 21 25 24 25 32 37 39 39 39 42 47 53 58 57 55 53 50 49 46 44 41 40 39 42 45
0 0 0 0 0 0 0 0 0 0 1 1 2 4 7 10 13 15 20 27 32 34 34 36 40 43 43 45 48 49 52 54 53 53 52 51 48 48 47 46 43 43 46 49
0 0 0 0 0 0 0 0 0 0 1 2 4 7 10 13 16 19 25 32 37 42 44 44 47 48 49 53 55 54 51 51 51 51 53 53 52 51 51 49 47 47 50 51
0 0 0 0 0 0 0 0 0 0 1 3 5 8 12 16 19 23 29 35 38 43 45 47 49 52 54 57 60 58 54 52 54 55 56 58 57 55 53 51 49 50 51 51
0 0 0 0 0 0 0 0 0 0 1 3 5 7 12 16 21 26 32 36 39 40 41 43 46 50 54 57 58 57 55 54 57 59 60 60 60 56 52 50 50 51 50 50
0 0 0 0 0 0 0 0 1 1 2 4 7 9 12 16 20 27 34 37 38 37 37 39 43 46 50 53 52 50 50 51 54 57 60 60 58 55 52 52 52 52 50 48
0 0 0 0 0 0 0 0 1 2 2 5 9 11 13 15 18 25 32 36 35 33 34 39 42 43 44 46 46 44 42 43 47 52 55 57 55 53 54 54 53 52 49 47
0 0 0 0 0 0 0 0 1 2 3 6 9 13 14 14 16 22 29 34 33 32 34 38 39 38 39 42 44 41 38 37 42 47 50 51 50 49 52 52 50 49 48 46
0 0 0 0 0 0 1 1 1 2 4 7 11 16 18 17 17 22 29 34 34 34 34 34 33 34 38 43 46 44 40 38 40 44 47 47 46 45 46 46 44 43 44 44
0 1 1 1 1 1 2 2 3 6 8 11 16 21 24 25 25 28 32 34 34 33 31 29 29 32 38 43 47 47 44 41 41 44 46 47 46 43 40 40 40 39 39 40
1 1 2 2 3 4 6 7 9 13 15 16 17 21 26 29 30 31 31 31 31 31 29 28 29 33 39 44 47 48 46 43 43 44 44 44 45 43 40 39 38 38 38 38
0 1 2 3 5 7 9 10 12 15 17 16 16 18 23 26 27 28 29 28 29 29 28 28 30 34 39 44 47 48 47 46 44 43 42 42 43 43 42 40 37 37 38 38
1 1 1 3 5 5 6 8 10 12 13 13 14 16 19 22 24 26 28 28 29 29 28 29 32 34 38 41 44 46 47 46 45 43 42 42 42 41 42 41 36 33 34 35
3 2 2 3 4 4 4 6 8 10 10 10 12 15 18 20 23 25 26 27 29 30 29 31 33 35 36 38 40 40 43 44 44 45 43 41 39 38 39 37 31 25 24 25
3 3 2 2 4 6 6 6 8 9 8 8 10 14 17 19 21 23 24 25 26 28 28 30 33 34 36 38 37 37 39 41 43 44 43 38 35 37 38 34 24 17 14 14

GEFSCGP_con_probscp_252.txt.gz
Probability
0 0 0 0 0 0 0 0 0 0 0 1 2 2 2 3 5 6 9 12 12 9 8 9 9 10 11 12 11 8 5 3 4 4 4 4 4 2 1 0 0 0 0 0
0 0 0 0 0 0 0 0 0 0 0 0 1 1 1 3 5 6 9 11 10 8 10 11 11 11 12 12 12 10 7 5 4 4 4 4 3 2 1 0 0 0 0 0
0 0 0 0 0 0 0 0 0 0 0 0 0 0 1 3 5 7 9 9 8 8 11 13 13 14 15 14 13 14 12 8 6 6 5 4 3 2 1 0 0 0 0 1
0 0 0 0 0 0 0 0 0 0 0 0 0 0 1 4 8 9 9 8 7 7 11 15 16 18 19 18 16 16 16 13 10 7 6 4 3 1 0 0 0 0 1 2
0 0 0 0 0 0 0 0 0 0 0 0 0 0 1 4 9 11 10 9 7 6 10 14 16 19 21 21 18 17 18 18 14 10 6 3 2 1 1 1 1 0 1 2
0 0 0 0 0 0 0 0 0 0 0 0 0 0 1 4 9 12 13 12 9 6 9 14 16 18 21 21 21 21 21 20 18 14 9 4 2 2 2 3 2 1 1 1
0 0 0 0 0 0 0 0 0 0 0 0 0 0 1 3 6 9 13 15 12 10 12 16 19 21 23 24 24 24 23 21 20 18 13 9 5 4 3 3 3 3 2 2
0 0 0 0 0 0 0 0 0 0 0 0 0 1 1 2 3 5 9 13 13 14 15 18 20 21 24 28 29 27 25 24 23 20 18 15 11 7 5 3 3 3 4 4
0 0 0 0 0 0 0 0 0 0 0 0 0 1 2 2 1 3 7 10 12 15 16 18 19 20 23 28 31 29 27 27 26 25 23 19 15 11 7 4 3 4 4 4
0 0 0 0 0 0 0 0 0 0 0 0 0 1 1 1 2 4 7 9 12 15 16 18 20 22 23 26 29 28 27 27 28 29 28 24 19 15 11 7 6 6 6 4
0 0 0 0 0 0 0 0 0 0 0 0 0 0 1 1 3 6 8 10 12 14 15 17 20 22 24 24 26 27 26 27 29 31 31 29 25 21 16 12 12 12 11 8
0 0 0 0 0 0 0 0 0 0 0 0 0 0 1 3 6 7 8 11 13 14 14 14 16 20 23 22 23 26 27 27 30 33 34 34 33 28 23 19 19 20 17 15
0 0 0 0 0 0 0 0 0 0 0 0 0 0 1 5 9 10 11 14 17 19 17 15 15 18 22 22 21 23 26 28 32 35 35 36 36 33 28 25 24 24 22 20
0 0 0 0 0 0 0 0 0 0 0 0 0 0 2 7 11 13 16 19 22 24 23 20 18 18 19 21 21 23 25 28 31 33 34 35 34 32 30 28 27 26 24 23
0 0 0 0 0 0 0 0 0 0 1 1 1 1 3 7 11 16 22 25 26 27 28 26 22 19 17 19 21 23 26 29 31 32 32 31 30 30 28 27 27 28 27 25
0 0 0 0 0 0 0 0 0 1 2 3 3 3 5 9 14 19 25 29 29 29 30 29 26 22 19 18 20 23 26 28 29 30 30 28 27 26 24 22 22 25 26 26
0 0 0 0 0 0 0 0 0 1 3 5 5 6 10 14 18 23 28 30 29 28 29 29 28 25 21 18 20 21 23 24 26 28 28 27 25 22 20 19 19 20 23 24
0 0 0 0 0 0 0 0 1 3 5 6 7 9 15 20 23 25 27 27 26 26 28 28 27 24 20 17 17 19 20 22 23 25 27 27 24 21 20 20 20 19 21 23
0 0 0 0 0 0 0 0 2 4 6 9 11 15 21 24 25 24 21 20 22 24 27 27 24 19 16 14 15 17 18 19 20 23 24 23 21 20 21 20 20 20 21 24
0 0 0 0 0 0 0 0 1 3 7 12 17 21 23 24 22 19 16 16 19 21 24 24 21 17 14 14 14 15 15 15 18 20 21 19 17 17 18 19 19 20 21 22
0 0 0 0 0 0 0 0 1 2 6 10 16 19 20 18 16 14 14 15 17 18 20 23 21 17 15 15 15 14 13 13 16 19 19 18 17 16 16 17 18 19 19 18
0 0 0 0 0 0 0 0 0 1 5 8 10 12 13 14 14 15 15 15 14 15 18 22 22 18 16 16 16 15 14 13 15 18 19 18 17 15 15 16 16 17 16 15
0 0 0 0 1 1 0 0 1 2 4 6 6 7 9 12 15 16 16 14 13 13 16 19 20 18 17 16 16 16 15 15 16 18 17 16 14 14 16 17 16 15 15 15
0 0 0 0 1 2 1 1 2 2 3 3 3 4 6 9 12 14 13 12 12 12 13 14 16 17 17 16 15 14 14 15 16 16 14 13 12 13 15 16 14 13 13 13
0 0 0 0 1 2 1 1 2 2 2 2 1 2 3 5 7 9 8 8 8 8 8 9 13 16 17 15 13 12 11 12 13 12 11 11 11 11 11 11 11 10 10 10
0 0 0 0 0 1 1 1 1 1 1 1 1 1 2 3 5 6 5 4 5 5 5 7 11 14 16 15 12 9 9 10 11 10 9 9 8 8 8 8 8 8 8 8